Regional Weather Roundup
Issued by NWS

Home | Current Version | Previous Version | Graphics & Text | Print | Product List | Glossary On
Versions: 1 2 3 4 5 6 7 8 9 10 11 12 13 14 15 16 17 18 19 20 21 22 23 24 25 26 27
000
ASUS45 KBOI 232210
RWRID

IDAHO REGIONAL WEATHER ROUNDUP
NATIONAL WEATHER SERVICE BOISE ID
300 PM MST FRI FEB 23 2018

NOTE: "FAIR" INDICATES FEW OR NO CLOUDS BELOW 12000 FEET
WITH NO SIGNIFICANT WEATHER AND/OR OBSTRUCTIONS TO VISIBILITY

IDZ012-014-232300-
SOUTHWEST IDAHO


CITY           SKY/WX    TMP DP  RH WIND       PRES   REMARKS
BOISE          SUNNY     29  12  49 N13       30.25F WCI  19
CALDWELL       SUNNY     33   9  36 CALM      30.28F
MOUNTAIN HOME  SUNNY     30  11  45 NW16G24   30.23F WCI  18
$$

IDZ016-017-232300-
SOUTHCENTRAL IDAHO


CITY           SKY/WX    TMP DP  RH WIND       PRES   REMARKS
BURLEY         PTSUNNY   23  12  62 W16G26    30.15F WCI  10
JEROME         MOSUNNY   27  12  53 W20G28    30.16F WCI  13
TWIN FALLS     SUNNY     24  13  62 W17       30.17S WCI  11
$$

IDZ019>023-232300-
SOUTHEAST IDAHO


CITY           SKY/WX    TMP DP  RH WIND       PRES   REMARKS
IDAHO FALLS    PTSUNNY   22  13  68 SW13G20   30.07S WCI  10
POCATELLO      LGT SNOW  19  13  77 SW17      30.13S WCI   4
REXBURG        MOSUNNY   25  12  58 SW13      30.03F WCI  14
$$

IDZ006-010-011-018-031-032-232300-
CENTRAL IDAHO MOUNTAINS


CITY           SKY/WX    TMP DP  RH WIND       PRES   REMARKS
MCCALL         SUNNY     18   5  57 SE5       30.07F WCI  11
HAILEY         MOSUNNY   21  10  63 SE10      30.05F WCI  10
STANLEY          N/A     20  -2  38 VRB3      29.99F
SALMON         SUNNY     25  10  53 VRB7      30.09F WCI  17
CHALLIS        SUNNY     28   4  35 S5        30.01F WCI  23
$$

IDZ002-004-006-007-026-232300-
NORTHERN IDAHO


CITY           SKY/WX    TMP DP  RH WIND       PRES   REMARKS
LEWISTON       CLOUDY    34  13  41 CALM      30.28F
LOWELL           N/A     32  16  51 S5        30.28F WCI  27
COEUR D`ALENE  CLOUDY    26  15  63 SW15      30.24F WCI  14
MULLAN PASS    LGT SNOW   9   5  84 VRB3      29.95S FOG
$$




USA.gov is the U.S. government's official web portal to all federal, state and local government web resources and services.